Regional Weather Roundup
Issued by NWS

Home | Current Version | Previous Version | Graphics & Text | Print | Product List | Glossary On
Versions: 1 2 3 4 5 6 7 8 9 10 11 12 13 14 15 16 17 18 19 20 21 22 23 24 25 26 27 28 29 30 31 32 33 34 35 36 37 38 39 40 41 42 43 44 45 46 47 48 49 50
305
ASUS43 KOAX 242210
RWRNE

WEATHER ROUNDUP FOR NEBRASKA
NATIONAL WEATHER SERVICE OMAHA NE
500 PM CDT SAT SEP 24 2016

NOTES: SATELLITE DATA IS BEING USED TO AUGMENT CLOUD COVER ABOVE
       12000 FEET.
       "FAIR" INDICATES FEW OR NO CLOUDS BELOW 12,000 FEET WITH NO
       SIGNIFICANT WEATHER AND/OR OBSTRUCTIONS TO VISIBILITY.

  * THESE STATIONS DO NOT REPORT WEATHER SUCH AS RAIN...SNOW OR FOG.

NEZ001>004-019>022-054>056-242300-
NEBRASKA PANHANDLE

CITY           SKY/WX    TMP DP  RH WIND       PRES   REMARKS
SCOTTSBLUFF    CLOUDY    69  39  33 NW21G30   29.99R
ALLIANCE       PTSUNNY   67  35  30 W21G35    29.96R
CHADRON        SUNNY     60  41  49 NW28G41   29.97R
KIMBALL        PTSUNNY   66  35  32 W13       30.02R
SIDNEY         SUNNY     70  30  22 W12       30.00R
$$

NEZ057>060-069>072-079>082-242300-
SOUTHWEST NEBRASKA

CITY           SKY/WX    TMP DP  RH WIND       PRES   REMARKS
NORTH PLATTE   SUNNY     79  37  22 W8        29.92R HAZE
IMPERIAL       SUNNY     75  34  22 W9        29.94S
LEXINGTON      SUNNY     78  39  25 CALM      29.91R
MCCOOK         SUNNY     77  39  25 CALM      29.91S
OGALLALA       SUNNY     75  31  19 W9        29.94R
$$

NEZ005>010-023>029-035>040-094-242300-
NORTH CENTRAL NEBRASKA

CITY           SKY/WX    TMP DP  RH WIND       PRES   REMARKS
VALENTINE      SUNNY     76  35  22 SW17G26   29.86S
AINSWORTH      SUNNY     76  39  27 SW14      29.88R
BROKEN BOW     SUNNY     77  39  25 SW7       29.90R
O`NEILL        SUNNY     79  44  29 CALM      29.88S
ORD            SUNNY     79  44  28 CALM      29.87R
THEDFORD       SUNNY     76  37  24 W13       29.91R
$$

NEZ041-046>049-061>064-073>077-083>087-242300-
SOUTH CENTRAL NEBRASKA

CITY           SKY/WX    TMP DP  RH WIND       PRES   REMARKS
GRAND ISLAND   CLOUDY    73  64  73 SW9       29.90S
AURORA         CLOUDY    74  69  84 SW7       29.89S
HASTINGS       CLOUDY    74  65  73 SW8       29.90F
HEBRON         CLOUDY    72  69  89 S8        29.92R
HOLDREGE       SUNNY     78  38  24 W5        29.90S
KEARNEY *      SUNNY     79  48  34 SW5       29.88F
YORK           CLOUDY    73  68  83 S9        29.91R
$$

NEZ011>018-030>034-042>045-242300-
NORTHEAST NEBRASKA

CITY           SKY/WX    TMP DP  RH WIND       PRES   REMARKS
NORFOLK        CLOUDY    74  68  81 SE7       29.88F
ALBION         CLOUDY    73  63  70 S12       29.89F
BLAIR          LGT RAIN  73  71  93 S13       29.91R
FREMONT        LGT RAIN  72  71  95 SE10      29.89R
TEKAMAH        LGT RAIN  74  71  91 SE9       29.87F
WAYNE          CLOUDY    72  69  90 S3        29.88F
$$

NEZ050>053-065>068-078-088>093-242300-
SOUTHEAST NEBRASKA

CITY           SKY/WX    TMP DP  RH WIND       PRES   REMARKS
LINCOLN        LGT RAIN  73  71  93 S7        29.90R
OMAHA EPPLEY   LGT RAIN  73  69  87 SE12      29.91F
BEATRICE       RAIN      72  71  96 SE10      29.91R
FALLS CITY     TSTM      70  70 100 W13G24    29.95R VSB 3/4
NEBRASKA CITY  TSTM      71  67  89 S13G20    29.96R
PLATTSMOUTH    CLOUDY    72  68  89 SE7       29.91F
$$

NEZ044-045-051>053-067-242300-
OMAHA AREA

CITY           SKY/WX    TMP DP  RH WIND       PRES   REMARKS
OMAHA EPPLEY   LGT RAIN  73  69  87 SE12      29.91F
BLAIR          LGT RAIN  73  71  93 S13       29.91R
FREMONT        LGT RAIN  72  71  95 SE10      29.89R
MILLARD        LGT RAIN  73  71  91 SE3       29.90R
OFFUTT AFB     LGT RAIN  72  72 100 SE7       29.90F
PLATTSMOUTH    CLOUDY    72  68  89 SE7       29.91F
WAHOO          RAIN      72  70  94 SE8       29.89R
$$




USA.gov is the U.S. government's official web portal to all federal, state and local government web resources and services.